When you browse on this site, cookies collect data to enhance your experience and personalize the content and advertising you see.
Visit our Privacy Policy to learn more. By continuing to use the site, you agree to this use of cookies and data.
  • In Hungary
  • List of Countries
  • For 7 days
  • Water Temperature
  • Weather Map
  • News
  • Weather Widgets
  • user-avatar
    Login

    Hourly Weather Prohnovo

    Today, 18 August, Sunday

    Time Temperature Precipitation Wind Pressure Humidity
    00:00 +15°C° 0.1 mm 2 mps 751 mmHg 91%
    01:00 +15°C° 0.1 mm 2 mps 751 mmHg 93%
    02:00 +15°C° 0 mm 2 mps 751 mmHg 91%
    03:00 +14°C° 0.2 mm 2 mps 751 mmHg 92%
    04:00 +14°C° 0.2 mm 2 mps 750 mmHg 93%
    05:00 +13°C° 0.2 mm 3 mps 750 mmHg 94%
    06:00 +14°C° 0 mm 3 mps 750 mmHg 92%
    07:00 +14°C° 0 mm 3 mps 750 mmHg 90%
    08:00 +16°C° 0 mm 3 mps 749 mmHg 87%
    09:00 +18°C° 0 mm 3 mps 749 mmHg 80%
    10:00 +19°C° 0 mm 3 mps 749 mmHg 73%
    11:00 +21°C° 0 mm 4 mps 749 mmHg 67%
    12:00 +21°C° 0 mm 3 mps 749 mmHg 67%
    13:00 +21°C° 0 mm 3 mps 749 mmHg 67%
    14:00 +21°C° 0 mm 3 mps 749 mmHg 67%
    15:00 +21°C° 0 mm 2 mps 749 mmHg 70%
    16:00 +21°C° 0 mm 2 mps 749 mmHg 73%
    17:00 +21°C° 0 mm 2 mps 750 mmHg 76%
    18:00 +20°C° 0 mm 1 mps 750 mmHg 82%
    19:00 +19°C° 0 mm 1 mps 750 mmHg 88%
    20:00 +16°C° 0 mm 1 mps 750 mmHg 94%
    21:00 +15°C° 0 mm 1 mps 750 mmHg 94%
    22:00 +15°C° 0 mm 1 mps 750 mmHg 95%
    23:00 +14°C° 0 mm 1 mps 750 mmHg 96%

    Tomorrow, 19 August, Monday

    Time Temperature Precipitation Wind Pressure Humidity
    00:00 +14°C° 0 mm 1 mps 750 mmHg 95%
    01:00 +14°C° 0 mm 1 mps 751 mmHg 95%
    02:00 +14°C° 0 mm 1 mps 751 mmHg 95%
    03:00 +13°C° 0 mm 1 mps 751 mmHg 95%
    04:00 +13°C° 0 mm 1 mps 751 mmHg 95%
    05:00 +13°C° 0 mm 1 mps 751 mmHg 95%
    06:00 +15°C° 0 mm 2 mps 751 mmHg 89%
    07:00 +16°C° 0 mm 2 mps 751 mmHg 84%
    08:00 +18°C° 0 mm 2 mps 751 mmHg 78%
    09:00 +20°C° 0 mm 3 mps 751 mmHg 73%
    10:00 +22°C° 0 mm 3 mps 751 mmHg 68%
    11:00 +25°C° 0 mm 4 mps 751 mmHg 62%
    12:00 +25°C° 0 mm 4 mps 751 mmHg 62%
    13:00 +26°C° 0 mm 4 mps 751 mmHg 62%
    14:00 +26°C° 0 mm 4 mps 751 mmHg 62%
    15:00 +26°C° 0.2 mm 4 mps 751 mmHg 69%
    16:00 +25°C° 0.2 mm 3 mps 751 mmHg 75%
    17:00 +25°C° 0.2 mm 3 mps 751 mmHg 81%
    18:00 +22°C° 0.2 mm 3 mps 752 mmHg 85%
    19:00 +21°C° 0.2 mm 3 mps 752 mmHg 90%
    20:00 +20°C° 0.2 mm 3 mps 752 mmHg 94%
    21:00 +20°C° 0.1 mm 2 mps 752 mmHg 95%
    22:00 +19°C° 0.1 mm 2 mps 752 mmHg 96%
    23:00 +19°C° 0.1 mm 2 mps 752 mmHg 97%

    Day after tomorrow, 20 August, Tuesday

    Time Temperature Precipitation Wind Pressure Humidity
    00:00 +19°C° 0.1 mm 2 mps 753 mmHg 97%
    01:00 +19°C° 0.1 mm 2 mps 753 mmHg 97%
    02:00 +18°C° 0.1 mm 2 mps 753 mmHg 97%
    03:00 +18°C° 0.4 mm 2 mps 754 mmHg 97%
    04:00 +18°C° 0.4 mm 2 mps 754 mmHg 96%
    05:00 +18°C° 0.4 mm 1 mps 754 mmHg 96%
    06:00 +19°C° 0 mm 1 mps 755 mmHg 95%
    07:00 +18°C° 0 mm 2 mps 755 mmHg 94%
    08:00 +19°C° 0 mm 2 mps 756 mmHg 93%
    09:00 +20°C° 0 mm 2 mps 756 mmHg 85%
    10:00 +21°C° 0 mm 2 mps 756 mmHg 78%
    11:00 +24°C° 0 mm 2 mps 756 mmHg 70%
    12:00 +24°C° 0 mm 1 mps 757 mmHg 67%
    13:00 +25°C° 0 mm 1 mps 757 mmHg 64%
    14:00 +25°C° 0 mm 1 mps 757 mmHg 61%
    15:00 +25°C° 0 mm 1 mps 757 mmHg 63%
    16:00 +25°C° 0 mm 1 mps 757 mmHg 66%
    17:00 +25°C° 0 mm 1 mps 757 mmHg 68%
    18:00 +23°C° 0 mm 1 mps 757 mmHg 74%
    19:00 +19°C° 0 mm 0 mps 758 mmHg 81%
    20:00 +17°C° 0 mm 0 mps 758 mmHg 87%
    21:00 +16°C° 0 mm 0 mps 758 mmHg 88%
    22:00 +15°C° 0 mm 0 mps 758 mmHg 90%
    23:00 +15°C° 0 mm 0 mps 759 mmHg 91%

    21 August, Wednesday

    Time Temperature Precipitation Wind Pressure Humidity
    00:00 +14°C° 0 mm 0 mps 759 mmHg 92%
    01:00 +14°C° 0 mm 0 mps 759 mmHg 92%
    02:00 +15°C° 0 mm 1 mps 759 mmHg 92%
    03:00 +15°C° 0 mm 1 mps 759 mmHg 93%
    04:00 +15°C° 0 mm 1 mps 759 mmHg 93%
    05:00 +14°C° 0 mm 1 mps 759 mmHg 93%
    06:00 +16°C° 0 mm 1 mps 759 mmHg 88%
    07:00 +19°C° 0 mm 1 mps 759 mmHg 82%
    08:00 +20°C° 0 mm 1 mps 759 mmHg 76%
    09:00 +21°C° 0 mm 2 mps 759 mmHg 71%
    10:00 +23°C° 0 mm 2 mps 759 mmHg 66%
    11:00 +24°C° 0 mm 2 mps 758 mmHg 62%
    12:00 +25°C° 0 mm 2 mps 758 mmHg 61%
    13:00 +25°C° 0 mm 2 mps 758 mmHg 61%
    14:00 +26°C° 0 mm 2 mps 757 mmHg 61%
    15:00 +25°C° 0.7 mm 2 mps 757 mmHg 70%
    16:00 +24°C° 0.7 mm 2 mps 756 mmHg 78%
    17:00 +21°C° 0.7 mm 2 mps 755 mmHg 87%
    18:00 +21°C° 1.4 mm 2 mps 755 mmHg 90%
    19:00 +20°C° 1.4 mm 2 mps 755 mmHg 94%
    20:00 +19°C° 1.4 mm 2 mps 754 mmHg 97%
    21:00 +20°C° 0.3 mm 2 mps 754 mmHg 97%
    22:00 +20°C° 0.3 mm 3 mps 754 mmHg 96%
    23:00 +20°C° 0.3 mm 3 mps 754 mmHg 96%

    22 August, Thursday

    Time Temperature Precipitation Wind Pressure Humidity
    00:00 +18°C° 1 mm 3 mps 754 mmHg 96%
    01:00 +17°C° 1 mm 3 mps 754 mmHg 97%
    02:00 +14°C° 1 mm 3 mps 754 mmHg 97%
    03:00 +14°C° 0 mm 3 mps 755 mmHg 96%
    04:00 +14°C° 0 mm 4 mps 755 mmHg 96%
    05:00 +14°C° 0 mm 4 mps 755 mmHg 95%
    06:00 +14°C° 0 mm 4 mps 756 mmHg 94%
    07:00 +14°C° 0 mm 3 mps 757 mmHg 93%
    08:00 +16°C° 0 mm 3 mps 757 mmHg 92%
    09:00 +16°C° 0 mm 3 mps 757 mmHg 88%
    10:00 +17°C° 0 mm 3 mps 758 mmHg 85%
    11:00 +17°C° 0 mm 2 mps 758 mmHg 81%
    12:00 +18°C° 0 mm 2 mps 758 mmHg 75%
    13:00 +20°C° 0 mm 2 mps 758 mmHg 69%
    14:00 +21°C° 0 mm 2 mps 758 mmHg 63%
    15:00 +21°C° 0 mm 2 mps 758 mmHg 66%
    16:00 +21°C° 0 mm 2 mps 758 mmHg 69%
    17:00 +21°C° 0 mm 1 mps 758 mmHg 72%
    18:00 +20°C° 0 mm 1 mps 758 mmHg 79%
    19:00 +18°C° 0 mm 1 mps 758 mmHg 85%
    20:00 +15°C° 0 mm 1 mps 758 mmHg 91%
    21:00 +15°C° 0 mm 1 mps 758 mmHg 92%
    22:00 +14°C° 0 mm 1 mps 759 mmHg 93%
    23:00 +13°C° 0 mm 1 mps 759 mmHg 94%

    23 August, Friday

    Time Temperature Precipitation Wind Pressure Humidity
    00:00 +13°C° 0 mm 1 mps 759 mmHg 94%
    01:00 +13°C° 0 mm 1 mps 759 mmHg 94%
    02:00 +12°C° 0 mm 1 mps 759 mmHg 94%
    03:00 +12°C° 0 mm 1 mps 759 mmHg 95%
    04:00 +11°C° 0 mm 0 mps 759 mmHg 95%
    05:00 +10°C° 0 mm 0 mps 759 mmHg 95%
    06:00 +12°C° 0 mm 0 mps 759 mmHg 89%
    07:00 +15°C° 0 mm 1 mps 759 mmHg 83%
    08:00 +18°C° 0 mm 1 mps 759 mmHg 77%
    09:00 +19°C° 0 mm 1 mps 759 mmHg 72%
    10:00 +20°C° 0 mm 1 mps 759 mmHg 67%
    11:00 +22°C° 0 mm 1 mps 759 mmHg 62%
    12:00 +21°C° 0.3 mm 2 mps 759 mmHg 63%
    13:00 +21°C° 0.3 mm 2 mps 759 mmHg 64%
    14:00 +21°C° 0.3 mm 2 mps 758 mmHg 65%
    15:00 +20°C° 0.3 mm 2 mps 758 mmHg 70%
    16:00 +20°C° 0.3 mm 2 mps 758 mmHg 74%
    17:00 +19°C° 0.3 mm 2 mps 758 mmHg 78%
    18:00 +17°C° 0 mm 2 mps 758 mmHg 83%
    19:00 +16°C° 0 mm 2 mps 759 mmHg 88%
    20:00 +14°C° 0 mm 1 mps 759 mmHg 93%
    21:00 +14°C° 0 mm 1 mps 759 mmHg 93%
    22:00 +13°C° 0 mm 2 mps 759 mmHg 93%
    23:00 +12°C° 0 mm 2 mps 760 mmHg 93%
    Show more